Weather History for KRFD - September, 2011

Change the Weather History Date:

Wednesday, September 7, 2011

  Actual Average Record
Temperature  
Mean Temperature 61 °F 68 °F  
Max Temperature 73 °F 79 °F 103 °F (1939)
Min Temperature 48 °F 56 °F 37 °F (1986)
Degree Days  
Heating Degree Days 4 2  
Month to date heating degree days 19 8  
Since 1 July heating degree days 19 22  
Cooling Degree Days 0 4  
Month to date cooling degree days 46 33  
Year to date cooling degree days 985 760  
Growing Degree Days 10 (Base 50)    
Moisture  
Dew Point 47 °F    
Average Humidity 66    
Maximum Humidity 93    
Minimum Humidity 38    
Precipitation  
Precipitation 0.00 in 0.11 in 2.20 in (1980)
Month to date precipitation 0.59 0.82  
Year to date precipitation 26.63 26.48  
Snow  
Snow 0.00 in 0.00 in 0.00 in ()
Month to date snowfall 0.0 0.0  
Since 1 July snowfall 0.0 0.0  
Since 1 September snowfall 0.0 0.0  
Snow Depth -    
Sea Level Pressure  
Sea Level Pressure 30.21 in    
Wind  
Wind Speed 9 mph (North)    
Max Wind Speed 20 mph    
Max Gust Speed 25 mph    
Visibility 10 miles    
Events      
T = Trace of Precipitation, MM = Missing Value Source: NWS Daily Summary

Daily Weather History Graph

Daily Weather History Graph

Search for Another Location

Airport or City:

Trip Planner

Search our weather history database for the weather conditions in past years. The results will help you decide how hot, cold, wet, or windy it might be!

Date:

Astronomy

Sep. 07, 2011 Rise Set
Actual Time 6:27 AM CDT 7:20 PM CDT
Civil Twilight 5:59 AM CDT 7:48 PM CDT
Nautical Twilight 5:25 AM CDT 8:22 PM CDT
Astronomical Twilight 4:50 AM CDT 8:57 PM CDT
Moon 4:41 PM CDT (9/7) 1:39 AM CDT (9/7)
Length of Visible Light 13h 49m
Length of Day
12h 52m
Waxing Gibbous, 80% of the Moon is Illuminated
Sep 7
Waxing Gibbous
Sep 12
Full
Sep 20
Last Quarter
Sep 27
New
Oct 3
First Quarter

Hourly Weather History & Observations

Time (CDT) Temp. Dew Point Humidity Pressure Visibility Wind Dir Wind Speed Gust Speed Precip Events Conditions
12:54 AM 51.1 °F 44.1 °F 77% 30.22 in 10.0 mi North 5.8 mph - N/A   Clear
1:54 AM 50.0 °F 44.1 °F 80% 30.21 in 10.0 mi NNE 8.1 mph - N/A   Clear
2:54 AM 48.9 °F 44.1 °F 83% 30.21 in 10.0 mi North 4.6 mph - N/A   Clear
3:54 AM 48.9 °F 44.1 °F 83% 30.20 in 10.0 mi North 5.8 mph - N/A   Clear
4:54 AM 48.0 °F 44.1 °F 86% 30.21 in 10.0 mi North 5.8 mph - N/A   Clear
5:54 AM 48.0 °F 45.0 °F 89% 30.23 in 10.0 mi North 8.1 mph - N/A   Clear
6:54 AM 48.9 °F 46.0 °F 90% 30.24 in 10.0 mi NNE 6.9 mph - N/A   Clear
7:54 AM 53.1 °F 46.9 °F 80% 30.24 in 10.0 mi North 8.1 mph - N/A   Clear
8:54 AM 57.9 °F 50.0 °F 75% 30.25 in 10.0 mi NNE 8.1 mph - N/A   Partly Cloudy
9:54 AM 62.1 °F 52.0 °F 70% 30.25 in 10.0 mi North 10.4 mph - N/A   Partly Cloudy
10:54 AM 64.9 °F 51.1 °F 61% 30.25 in 10.0 mi North 10.4 mph - N/A   Partly Cloudy
11:54 AM 66.9 °F 48.9 °F 52% 30.23 in 10.0 mi North 13.8 mph 19.6 mph N/A   Scattered Clouds
12:54 PM 70.0 °F 48.0 °F 46% 30.21 in 10.0 mi NNE 17.3 mph 20.7 mph N/A   Partly Cloudy
1:54 PM 72.0 °F 46.9 °F 41% 30.20 in 10.0 mi NNE 15.0 mph 21.9 mph N/A   Partly Cloudy
2:54 PM 72.0 °F 45.0 °F 38% 30.19 in 10.0 mi NNE 17.3 mph 25.3 mph N/A   Partly Cloudy
3:54 PM 72.0 °F 44.1 °F 37% 30.18 in 10.0 mi NE 13.8 mph 24.2 mph N/A   Partly Cloudy
4:54 PM 72.0 °F 46.0 °F 40% 30.18 in 10.0 mi NNE 11.5 mph - N/A   Partly Cloudy
5:54 PM 71.1 °F 45.0 °F 39% 30.18 in 10.0 mi NNE 12.7 mph - N/A   Partly Cloudy
6:54 PM 69.1 °F 46.9 °F 45% 30.18 in 10.0 mi NNE 11.5 mph - N/A   Clear
7:54 PM 63.0 °F 48.9 °F 60% 30.20 in 10.0 mi North 9.2 mph - N/A   Clear
8:54 PM 61.0 °F 48.9 °F 64% 30.22 in 10.0 mi North 6.9 mph - N/A   Clear
9:54 PM 57.9 °F 48.9 °F 72% 30.22 in 10.0 mi North 5.8 mph - N/A   Clear
10:54 PM 57.0 °F 48.0 °F 72% 30.21 in 10.0 mi North 3.5 mph - N/A   Clear
11:54 PM 54.0 °F 46.9 °F 77% 30.20 in 10.0 mi North 4.6 mph - N/A   Scattered Clouds